www.pogodaiklimat.ru

Погода и климат >> Архив погоды >> Мексика >> Orizaba


ПОГОДА в Orizaba

  • Прогноз погоды в Orizaba
  • Монитор погоды в Orizaba
  • Климат города

АРХИВ ПОГОДЫ в Orizaba

Время (UTC), дата Ветер
(напр.,м/с)
 
Видим.   Явления Облачность Т
(С)
Тd
(С)
f
(%)
Тe
(С)
Тes
(С)
Комфортность P
(гПа)
Po
(гПа)
Тmin
(С)
Tmax
(С)
R
(мм)
R24
(мм)
S
(см)
06 14.04 ЮЗ 3
{5}
30 км ясно +22.4 +17.7 75 +27 +27 душно 1006.5 873.5 +19.4 +31.8
09 14.04 ЮЗ 4
{8}
30 км ясно +24.3 +13.2 50 +26 +26 жарко 1004.6 871.4
12 14.04 ЮЗ 8
{12}
30 км ясно +23.5 +12.7 51 +26 +26 жарко 1005.9 872.2 +23.5 +31.8
15 14.04 З 4
{10}
30 км ясно +26.2 +11.0 39 +27 +33 жарко 1007.5 873.7
18 14.04 З 3
{10}
30 км 1/0
[Ci fib]
+32.1 +10.4 26 +32 +49 жарко 1006.1 873.4 +22.0 +32.3
21 14.04 ЮВ 3
{6}
30 км 5/5 700 м
[Cu hum]
+29.8 +18.6 51 +35 +41 очень
душно
1003.9 872.2
00 15.04 ЮВ 3 30 км ливневой дождь, в посл. час гроза 8/5 300 м
[St As op]
+23.9 +18.1 70 +28 +28 душно 1004.8 873.1 +22.0 +33.8
03 15.04 штиль 0 20 км слабая морось 10/10 400 м
[Frnb]
+18.7 +15.4 81 +20 +20 1010.7 877.8 0.0
06 15.04 штиль 0 25 км {морось} 10/10 300 м
[Frnb]
+16.1 +12.4 79 +16 +16 1015.0 879.9 0.0
09 15.04 штиль 0 25 км 10/10 500 м
[St]
+15.0 +11.1 77 +15 +15 1016.8 879.9
12 15.04 штиль 0 25 км 10/10 500 м
[St]
+14.4 +10.1 75 +14 +14 1019.6 881.2 +14.4 +33.8
15 15.04 Ю 3
{6}
30 км 10/6 600 м
[St As op]
+14.6 +10.6 77 +14 +14 1023.3 883.7
18 15.04 В 4 30 км 10/4 600 м
[St As op]
+16.2 +9.2 63 +16 +17 1025.1 885.1 +14.2 +16.5
21 15.04 В 3
{6}
30 км 10/5 500 м
[St As op]
+16.4 +9.7 65 +16 +17 1023.8 884.1
00 16.04 В 2 30 км 10/5 300 м
[St Ac As]
+15.0 +9.1 68 +15 +15 1022.8 884.3 +14.2 +16.5
03 16.04 штиль 0 30 км ясно +13.0 +9.8 81 +13 +13 1025.2 885.3
06 16.04 штиль 0 30 км ясно +10.7 +8.2 85 +10 +10 1026.2 885.7 +10.7 +16.5
09 16.04 штиль 0 30 км ясно +10.5 +7.1 79 +10 +10 1024.6 883.6
12 16.04 штиль 0 30 км ясно +9.1 +5.3 77 +8 +8 1024.9 883.2 +9.1 +16.5
15 16.04 В 2
{4}
30 км ясно +15.7 +6.7 55 +16 +25 1026.4 884.4
18 16.04 В 3
{6}
30 км ясно +21.4 +7.1 40 +22 +40 комфорт 1024.6 883.9 +8.9 +21.6
21 16.04 В 4
{8}
30 км 1/1 600 м
[Cu hum]
+22.8 +10.5 46 +25 +33 комфорт 1021.0 882.2
00 17.04 В 3
{8}
30 км ясно +21.6 +9.7 47 +23 +24 комфорт 1018.5 881.4 +8.9 +23.0
03 17.04 ЮВ 1 30 км 4/3 400 м
[St Ac lent]
+15.7 +12.3 80 +16 +16 1019.8 883.0
06 17.04 ЮВ 1 25 км 9/9 400 м
[St]
+14.0 +12.6 91 +14 +14 1020.7 883.1 +8.9 +23.0
09 17.04 штиль 0 30 км 1/1 400 м
[St]
+13.0 +11.4 90 +12 +12 1011.8 880.4
12 17.04 штиль 0 30 км 4/0 2000 м
[Ac lent Ci]
+11.7 +9.5 86 +11 +11 1019.4 879.9 +11.7 +23.0
15 17.04 ЮВ 1
{2}
30 км 1/0
[Ci fib]
+17.9 +12.2 69 +19 +29 1020.2 880.4
18 17.04 В 2
{4}
28 км 1/1 700 м
[Cu hum]
+21.8 +15.1 66 +25 +45 комфорт 1018.0 879.2 +11.2 +22.2
21 17.04 В 3
{16}
28 км мгла 1/1 700 м
[Cu hum]
+24.4 +15.9 59 +28 +38 душно 1014.3 877.1
00 18.04 В 2 30 км ясно +23.6 +16.0 62 +27 +28 жарко 1012.0 876.4 +11.2 +24.8
03 18.04 Ю 1
{5}
30 км ясно +17.8 +13.4 75 +19 +19 1013.3 878.0
06 18.04 ЮЗ 1 30 км 3/0 2000 м
[Ac trans]
+17.1 +11.8 71 +18 +18 1013.9 878.0 +11.2 +24.8
09 18.04 ЮЗ 1
{3}
30 км ясно +14.7 +8.7 67 +15 +15 1012.4 875.9
12 18.04 З 1
{3}
30 км ясно +12.8 +7.5 70 +13 +13 1013.8 875.9 +12.8 +24.8
15 18.04 Ю 1
{3}
30 км ясно +19.7 +10.7 56 +22 +33 комфорт 1015.4 876.9
18 18.04 В 2
{3}
28 км мгла 1/1 700 м
[Cu hum]
+26.4 +14.8 49 +29 +49 жарко 1013.3 876.1 +12.4 +26.5
21 18.04 В 3
{6}
28 км мгла 5/3 700 м
[Cu hum Ac trans Ci fib]
+27.2 +17.7 56 +31 +39 душно 1011.2 875.4
00 19.04 В 3 28 км 8/3 300 м
[Cu hum As op]
+24.2 +15.7 59 +27 +28 жарко 1010.5 876.1 +12.4 +27.2
03 19.04 штиль 0
{6}
30 км 3/0 2000 м
[Ac trans]
+20.1 +15.6 75 +22 +22 комфорт 1011.7 877.6
06 19.04 штиль 0 30 км 4/0 2000 м
[Ac trans]
+17.9 +14.4 80 +18 +18 1012.9 878.0 +12.4 +27.2
09 19.04 С 1
{2}
30 км ясно +15.7 +13.5 87 +16 +16 1014.2 877.6
12 19.04 СВ 1 30 км 8/0 2000 м
[Ac und]
+14.5 +11.7 83 +15 +15 1016.1 879.1 +14.1 +27.2
15 19.04 В 2
{4}
25 км 9/6 400 м
[St Ac trans]
+19.2 +15.0 77 +21 +23 комфорт 1019.8 881.3
18 19.04 В 4
{8}
30 км 6/6 700 м
[Cu med, cong]
+23.0 +16.1 65 +27 +33 душно 1019.9 881.7 +14.1 +23.3
21 19.04 В 3
{6}
28 км 6/6 600 м
[Sc diur, vesp]
+23.8 +15.8 61 +27 +32 жарко 1017.6 880.5
00 20.04 В 4 20 км 6/6 600 м
[Sc diur, vesp]
+21.0 +16.7 76 +25 +25 комфорт 1015.7 879.7 +14.1 +24.2
03 20.04 ЮВ 2 20 км 9/9 300 м
[St]
+18.1 +17.2 94 +19 +19 1017.9 881.7
06 20.04 ЮВ 1 25 км 8/8 400 м
[St]
+17.5 +16.0 91 +19 +19 1018.9 882.2 +14.1 +24.2
09 20.04 штиль 0 25 км 9/5 400 м
[St Ac und]
+16.1 +14.9 93 +16 +16 1018.4 881.0
12 20.04 С 1 30 км 1/0 2000 м
[Ac lent]
+13.4 +11.8 90 +14 +14 1019.2 880.9 +24.2
15 20.04 В 2
{3}
30 км 3/0
[Ci fib]
+20.2 +14.3 69 +23 +32 комфорт 1019.2 880.7
18 20.04 В 3 30 км 8/3 700 м
[Cu hum Ac trans Ci fib]
+23.1 +16.2 65 +28 +36 душно 1019.1 881.2 +13.2 +23.2
21 20.04 В 4
{8}
20 км 10/10 600 м
[St]
+20.0 +15.5 75 +22 +22 комфорт 1017.4 880.2
00 21.04 В 3 15 км в посл. час морось 10/10 300 м
[St]
+19.0 +16.7 87 +21 +21 комфорт 1015.5 879.1 0.0
03 21.04 штиль 0 20 км 10/10 400 м
[St]
+18.4 +15.9 85 +19 +19 1016.2 879.8

 

Местоположение метеостанции Orizaba (Мексика): широта 18.85 долгота -97.10 высота над уровнем моря 1259 м.

В архиве по умолчанию представлена погода в Orizaba за последнюю неделю. Архивные данные за месяц целиком и за предыдущие месяцы, начиная с января 2011 года, Вы можете получить, выбрав интересующий диапазон дат из раскрывающегося списка и нажав кнопку "Ввод!".


*Определитесь, кто Вы:
робот инопланетянин человек

Внимание! Время в таблицах - всемирное. Для получения местного времени необходимо прибавить поправку, которая в Orizaba равна -6 ч.

Смотрите также архив погоды в соседних городах и на ближайших метеорологических станциях:

Погода в Cordoba-In-Veracruz (Мексика) (19 км)
Погода в Jalapa (Мексика) (80 км)
Погода в Verakruz (Мексика) (109 км)
Погода в Puebla (Мексика) (114 км)
Погода в Tlaxcala Airport (Мексика) (130 км)
Погода в Tlaxcala (Мексика) (132 км)
Погода в Huajuapan De Leon (Мексика) (137 км)
Погода в Tulancingo (Мексика) (191 км)
Погода в Oaxaca (Мексика) (204 км)
Погода в Zacatepec (Мексика) (219 км)

Пояснения к столбцам:

Ветер - указаны скорость ветра в м/с - средняя за 10 мин, порывы в срок и между сроками (в фигурных скобках) и направление, откуда дует ветер: С - северный, СВ - северо-восточный, В - восточный, ЮВ - юго-восточный, Ю - южный, ЮЗ - юго-западный, З - западный, СЗ - северо-западный.
Видимость - горизонтальная дальность видимости в метрах или километрах. При видимости от 1 до 10 км при отсутствии осадков обычно наблюдается дымка, при ухудшении видимости до 1 км и менее - туман. В сухую погоду видимость может ухудшаться дымом, пылью или мглою.
Явления - указаны атмосферные явления, наблюдавшиеся в срок или в последний час перед сроком; фигурными скобками обозначены явления, наблюдавшиеся между сроками (за 1-3 часа до срока); квадратными скобками обозначены град или гололедные отложения с указанием их диаметра в мм.
Облачность - указаны через наклонную черту общая и нижняя облачность в баллах и высота нижней границы облаков в метрах; квадратными скобками обозначены формы облаков: Ci - перистые, Cs - перисто-слоистые, Cc - перисто-кучевые, Ac - высококучевые, As - высокослоистые, Sc - слоисто-кучевые, Ns - слоисто-дождевые, Cu - кучевые, Cb - кучево-дождевые. Подробнее классификацию облаков см. в Атласе облаков (PDF).
T - Температура воздуха - температура, измеренная на высоте 2 м над землей.
Td - Температура точки росы - температура, при понижении до которой содержащийся в воздухе водяной пар достигнет насыщения.
f - Относительная влажность воздуха - влажноcть воздуха, измеренная на высоте 2 м над землей.
Te - Эффективная температура - температура, которую ощущает одетый по сезону человек в тени. Характеристика душности погоды. При расчете учитывается влияние влажности воздуха и скорости ветра на теплоощущения человека.
Tes - Эффективная температура на солнце - температура, которую ощущает человек, с поправкой на солнечный нагрев. Характеристика знойности погоды. Зависит от высоты солнца над горизонтом, облачности и скорости ветра. Ночью, в пасмурную погоду, а также при ветре 12 м/с и более поправка равна нулю.
P - Атмосферное давление - приведенное к уровню моря атмосферное давление.
Po - Атмосферное давление - измеренное на уровне метеостанции атмосферное давление.
Tmin - Минимальная температура - минимум температуры воздуха на высоте 2 м над землей.
Tmax - Максимальная температура - максимум температуры воздуха на высоте 2 м над землей.
R - Количество осадков - Количество выпавших осадков за период времени, мм. При наведении курсора мыши на число - период времени, за который выпало указанное количество осадков.
R24 - Количество осадков - Количество выпавших осадков за 24 часа, мм.
S - Снежный покров - Высота снежного покрова, см. При наведении курсора мыши на число - состояние снежного покрова и степень покрытия местности в баллах.